DW8749 Weather Reports


Display with metric or nautical units.
time (UTC)temp
F
wind
direction
speed
MPH
gust
MPH
rain 1hr
in
rain 24hr
in
rain mn
in
humidity
%
barometer
mb
20260505221520 52 34 9.0 15.0 0.00 0.00 0.00 51 1012.3
20260505221014 52 55 7.0 17.0 0.00 0.00 0.00 50 1012.5
20260505220508 52 39 7.0 17.0 0.00 0.00 0.00 50 1012.7
20260505220030 53 352 9.0 15.0 0.00 0.00 0.00 50 1012.8
20260505215510 53 86 8.0 16.0 0.00 0.00 0.00 52 1012.7
20260505215004 53 46 8.0 16.0 0.00 0.00 0.00 53 1012.7
20260505214508 53 43 7.0 15.0 0.00 0.00 0.00 52 1012.9
20260505214004 53 24 7.0 15.0 0.00 0.00 0.00 53 1012.9
20260505213503 53 13 4.0 19.0 0.00 0.00 0.00 53 1012.9
20260505213017 54 9 9.0 19.0 0.00 0.00 0.00 53 1012.8
20260505212507 54 350 7.0 16.0 0.00 0.00 0.00 53 1012.7
20260505212010 54 56 11.0 16.0 0.00 0.00 0.00 52 1012.9
20260505211520 54 46 6.0 12.0 0.00 0.00 0.00 54 1012.8
20260505211009 54 57 4.0 17.0 0.00 0.00 0.00 54 1012.7
20260505210506 54 38 10.0 17.0 0.00 0.00 0.00 52 1012.8
20260505210026 53 82 9.0 17.0 0.00 0.00 0.00 52 1012.9
20260505205508 53 67 6.0 19.0 0.00 0.00 0.00 51 1012.9
20260505205009 53 76 8.0 23.0 0.00 0.00 0.00 50 1012.9
20260505204509 53 53 12.0 23.0 0.00 0.00 0.00 50 1013.1
20260505204005 53 44 12.0 21.0 0.00 0.00 0.00 48 1013.2
20260505203507 54 59 7.0 17.0 0.00 0.00 0.00 50 1013.1
20260505203021 54 18 6.0 14.0 0.00 0.00 0.00 52 1013.1
20260505202508 54 55 7.0 19.0 0.00 0.00 0.00 53 1013.1
20260505202011 53 53 10.0 19.0 0.00 0.00 0.00 52 1013.2
20260505201525 53 346 9.0 19.0 0.00 0.00 0.00 52 1013.3
20260505201007 54 36 9.0 19.0 0.00 0.00 0.00 51 1013.3
20260505200510 53 49 8.0 17.0 0.00 0.00 0.00 52 1013.4
20260505200029 53 78 6.0 18.0 0.00 0.00 0.00 52 1013.5
20260505195504 52 42 12.0 18.0 0.00 0.00 0.00 51 1013.6
20260505195006 52 16 10.0 16.0 0.00 0.00 0.00 51 1013.6
20260505194512 53 40 6.0 16.0 0.00 0.00 0.00 52 1013.5
20260505194011 53 12 8.0 18.0 0.00 0.00 0.00 52 1013.7
20260505193506 54 69 10.0 18.0 0.00 0.00 0.00 51 1013.7
20260505193021 54 15 10.0 19.0 0.00 0.00 0.00 50 1013.6
20260505192509 55 49 7.0 19.0 0.00 0.00 0.00 50 1013.5
20260505192009 55 344 9.0 15.0 0.00 0.00 0.00 51 1013.3
20260505191527 55 51 9.0 21.0 0.00 0.00 0.00 50 1013.2
20260505191007 55 34 10.0 21.0 0.00 0.00 0.00 52 1013.0
20260505190510 55 32 8.0 17.0 0.00 0.00 0.00 52 1013.1
20260505190012 54 43 8.0 20.0 0.00 0.00 0.00 53 1013.0
20260505185506 54 79 10.0 20.0 0.00 0.00 0.00 52 1012.9
20260505185009 55 43 11.0 20.0 0.00 0.00 0.00 51 1012.9
20260505184517 55 92 8.0 17.0 0.00 0.00 0.00 52 1013.0
20260505184005 54 42 10.0 17.0 0.00 0.00 0.00 52 1013.3
20260505183507 54 40 12.0 17.0 0.00 0.00 0.00 52 1013.3
20260505183032 54 5 10.0 20.0 0.00 0.00 0.00 53 1013.3
20260505182509 54 30 8.0 20.0 0.00 0.00 0.00 53 1013.6
20260505182003 54 44 11.0 20.0 0.00 0.00 0.00 51 1013.5
20260505181506 54 28 7.0 21.0 0.00 0.00 0.00 51 1013.6
20260505181002 54 27 12.0 21.0 0.00 0.00 0.00 51 1013.6
20260505180504 54 34 9.0 19.0 0.00 0.00 0.00 51 1013.6
20260505180036 54 18 8.0 21.0 0.00 0.00 0.00 50 1013.6
20260505175504 54 74 9.0 21.0 0.00 0.00 0.00 51 1013.5
20260505175007 55 19 6.0 20.0 0.00 0.00 0.00 51 1013.4
20260505174518 55 26 11.0 19.0 0.00 0.00 0.00 50 1013.5
20260505174010 55 9 10.0 19.0 0.00 0.00 0.00 50 1013.3
20260505173508 55 40 10.0 20.0 0.00 0.00 0.00 49 1013.5
20260505173025 55 52 11.0 20.0 0.00 0.00 0.00 50 1013.4
20260505172505 55 65 10.0 20.0 0.00 0.00 0.00 51 1013.4
20260505172004 54 49 12.0 20.0 0.00 0.00 0.00 51 1013.3
20260505171508 54 30 13.0 20.0 0.00 0.00 0.00 51 1013.3
20260505171006 55 27 10.0 23.0 0.00 0.00 0.00 51 1013.3
20260505170509 55 82 10.0 23.0 0.00 0.00 0.00 50 1013.2
20260505170017 55 24 12.0 22.0 0.00 0.00 0.00 50 1013.0
20260505165507 55 65 10.0 22.0 0.00 0.00 0.00 53 1012.9
20260505165008 55 74 11.0 19.0 0.00 0.00 0.00 52 1013.0
20260505164522 54 47 10.0 17.0 0.00 0.00 0.00 53 1013.1
20260505164007 54 94 6.0 18.0 0.00 0.00 0.00 55 1013.2
20260505163516 53 95 9.0 18.0 0.00 0.00 0.00 55 1013.2
20260505163029 52 74 11.0 18.0 0.00 0.00 0.00 55 1013.3
20260505162502 52 92 8.0 19.0 0.00 0.00 0.00 56 1013.5
20260505162003 52 71 9.0 19.0 0.00 0.00 0.00 56 1013.5
20260505161510 52 65 8.0 17.0 0.00 0.00 0.00 55 1013.6
20260505161006 51 54 10.0 17.0 0.00 0.00 0.00 55 1013.4
20260505160508 51 65 7.0 17.0 0.00 0.00 0.00 57 1013.5
20260505153010 51 56 10.0 18.0 0.00 0.00 0.00 55 1013.3
20260505152506 51 49 5.0 17.0 0.00 0.00 0.00 56 1013.2
20260505152008 51 24 8.0 23.0 0.00 0.00 0.00 55 1013.1
20260505151514 51 24 14.0 23.0 0.00 0.00 0.00 54 1013.1
20260505151006 51 88 10.0 21.0 0.00 0.00 0.00 55 1013.0
20260505150507 51 32 9.0 16.0 0.00 0.00 0.00 55 1013.0
20260505140513 50 42 10.0 18.0 0.00 0.00 0.00 55 1012.3
20260505125008 50 22 10.0 24.0 0.00 0.00 0.00 56 1010.8
20260505124530 50 43 13.0 19.0 0.00 0.00 0.00 56 1010.6
20260505124010 50 53 9.0 24.0 0.00 0.00 0.00 56 1010.6
20260505123504 50 40 14.0 24.0 0.00 0.00 0.00 56 1010.6
20260505123028 50 53 9.0 24.0 0.00 0.00 0.00 56 1010.5
20260505122504 50 38 12.0 24.0 0.00 0.00 0.00 55 1010.3
20260505122008 50 48 12.0 21.0 0.00 0.00 0.00 55 1010.4
20260505121525 50 59 12.0 21.0 0.00 0.00 0.00 56 1010.3
20260505121009 50 38 10.0 21.0 0.00 0.00 0.00 55 1010.3
20260505120510 50 59 9.0 19.0 0.00 0.00 0.00 55 1010.1
20260505120029 50 55 11.0 22.0 0.00 0.00 0.00 55 1010.1
20260505115509 50 43 11.0 22.0 0.00 0.00 0.00 55 1010.2
20260505115006 50 46 9.0 18.0 0.00 0.00 0.00 55 1010.2
20260505114527 50 44 10.0 18.0 0.00 0.00 0.00 54 1010.1
20260505114009 51 56 11.0 19.0 0.00 0.00 0.00 54 1009.9
20260505113507 51 60 12.0 19.0 0.00 0.00 0.00 54 1009.8
20260505113022 51 23 11.0 18.0 0.00 0.00 0.00 54 1009.8
20260505112513 51 12 8.0 19.0 0.00 0.00 0.00 53 1009.6
20260505112008 51 50 8.0 19.0 0.00 0.00 0.00 53 1009.5
20260505111526 51 34 9.0 24.0 0.00 0.00 0.00 53 1009.5
20260505111012 51 43 13.0 24.0 0.00 0.00 0.00 52 1009.4
20260505110508 51 63 12.0 24.0 0.00 0.00 0.00 52 1009.5
20260505102008 53 40 13.0 24.0 0.00 0.00 0.00 47 1009.1
20260505101546 53 32 14.0 24.0 0.00 0.00 0.00 47 1008.8
20260505101011 53 80 12.0 25.0 0.00 0.00 0.00 47 1008.6
20260505100510 53 26 15.0 25.0 0.00 0.00 0.00 47 1008.5
20260505100028 53 38 11.0 25.0 0.00 0.00 0.00 47 1008.6
20260505095503 53 17 8.0 25.0 0.00 0.00 0.00 48 1008.5
20260505095008 53 61 14.0 25.0 0.00 0.00 0.00 48 1008.2
20260505094517 53 55 15.0 25.0 0.00 0.00 0.00 48 1008.2
20260505094007 53 37 11.0 27.0 0.00 0.00 0.00 47 1008.1
20260505093507 53 44 14.0 27.0 0.00 0.00 0.00 47 1008.0
20260505093025 53 42 12.0 24.0 0.00 0.00 0.00 47 1007.9
20260505092503 53 60 10.0 21.0 0.00 0.00 0.00 47 1007.8
20260505092002 53 41 10.0 21.0 0.00 0.00 0.00 47 1007.7
20260505091508 53 76 10.0 21.0 0.00 0.00 0.00 48 1007.6
20260505091005 53 53 10.0 21.0 0.00 0.00 0.00 48 1007.8
20260505090503 53 67 14.0 21.0 0.00 0.00 0.00 48 1007.8
20260505090012 53 67 11.0 25.0 0.00 0.00 0.00 48 1007.7
20260505085508 54 51 13.0 25.0 0.00 0.00 0.00 48 1007.5
20260505085009 54 38 8.0 23.0 0.00 0.00 0.00 48 1007.3
20260505084522 54 53 11.0 27.0 0.00 0.00 0.00 48 1007.1
20260505084010 54 50 14.0 31.0 0.00 0.00 0.00 47 1006.8
20260505083507 54 21 12.0 33.0 0.00 0.00 0.00 47 1006.8
20260505083025 54 42 16.0 28.0 0.00 0.00 0.00 46 1006.8
20260505082502 54 51 13.0 27.0 0.00 0.00 0.00 46 1006.9
20260505082003 54 67 17.0 34.0 0.00 0.00 0.00 46 1007.0
20260505081512 55 40 17.0 34.0 0.00 0.00 0.00 45 1006.8
20260505081003 55 70 17.0 26.0 0.00 0.00 0.00 45 1006.8
20260505080506 55 46 17.0 32.0 0.00 0.00 0.00 45 1006.8
20260505080015 55 44 15.0 32.0 0.00 0.00 0.00 44 1006.8
20260505075507 55 45 15.0 26.0 0.00 0.00 0.00 45 1006.7
20260505075010 55 94 12.0 26.0 0.00 0.00 0.00 45 1006.7
20260505074524 56 41 18.0 33.0 0.00 0.00 0.00 45 1006.5
20260505074012 56 39 19.0 33.0 0.00 0.00 0.00 44 1006.3
20260505073509 56 22 16.0 26.0 0.00 0.00 0.00 44 1006.5
20260505073027 56 352 15.0 28.0 0.00 0.00 0.00 44 1006.3
20260505072507 56 47 10.0 28.0 0.00 0.00 0.00 43 1006.1
20260505072002 56 43 17.0 27.0 0.00 0.00 0.00 43 1006.0
20260505071511 56 32 16.0 29.0 0.00 0.00 0.00 43 1006.0
20260505071006 57 94 11.0 29.0 0.00 0.00 0.00 43 1006.2
20260505070507 57 51 18.0 29.0 0.00 0.00 0.00 42 1006.3
20260505070020 57 44 14.0 23.0 0.00 0.00 0.00 42 1006.2
20260505065507 57 22 15.0 24.0 0.00 0.00 0.00 42 1006.3
20260505065006 58 57 15.0 26.0 0.00 0.00 0.00 43 1006.2
20260505064526 58 36 13.0 26.0 0.00 0.00 0.00 42 1006.1
20260505064006 59 50 16.0 26.0 0.00 0.00 0.00 41 1006.1
20260505063509 60 42 13.0 24.0 0.00 0.00 0.00 40 1006.1
20260505063010 60 46 14.0 27.0 0.00 0.00 0.00 40 1005.8
20260505062503 61 26 17.0 27.0 0.00 0.00 0.00 39 1005.7
20260505062010 61 60 20.0 28.0 0.00 0.00 0.00 39 1005.6
20260505061523 61 56 17.0 28.0 0.00 0.00 0.00 39 1005.4
20260505061006 61 11 12.0 23.0 0.00 0.00 0.00 40 1005.4
20260505060508 62 38 12.0 22.0 0.00 0.00 0.00 39 1005.3
20260505060024 62 38 12.0 24.0 0.00 0.00 0.00 39 1005.1
20260505055510 62 57 16.0 27.0 0.00 0.00 0.00 39 1005.1
20260505055013 62 67 9.0 27.0 0.00 0.00 0.00 39 1005.0
20260505054524 62 34 10.0 25.0 0.00 0.00 0.00 39 1005.1
20260505054014 63 42 13.0 26.0 0.00 0.00 0.00 39 1004.9
20260505053504 63 52 16.0 26.0 0.00 0.00 0.00 38 1004.8
20260505053026 63 53 14.0 22.0 0.00 0.00 0.00 39 1004.8
20260505052504 63 34 12.0 22.0 0.00 0.00 0.00 39 1004.7
20260505052009 64 44 10.0 20.0 0.00 0.00 0.00 39 1004.6
20260505051532 64 65 9.0 25.0 0.00 0.00 0.00 39 1004.4
20260505051009 64 51 10.0 25.0 0.00 0.00 0.00 38 1004.3
20260505050507 64 69 12.0 24.0 0.00 0.00 0.00 38 1004.3
20260505041523 67 70 16.0 24.0 0.00 0.00 0.00 40 1003.3
20260505041009 67 71 12.0 24.0 0.00 0.00 0.00 40 1003.3
20260505040512 67 51 12.0 20.0 0.00 0.00 0.00 41 1003.3
20260505040025 67 38 13.0 20.0 0.00 0.00 0.00 42 1003.3
20260505035515 67 54 13.0 27.0 0.00 0.00 0.00 42 1003.2
20260505035010 68 44 13.0 27.0 0.00 0.00 0.00 43 1003.3
20260505034528 68 59 15.0 24.0 0.00 0.00 0.00 44 1003.2
20260505034006 68 41 13.0 24.0 0.00 0.00 0.00 44 1003.3
20260505033505 69 42 13.0 24.0 0.00 0.00 0.00 43 1003.3
20260505033016 69 10 16.0 28.0 0.00 0.00 0.00 42 1003.1
20260505032508 70 50 16.0 28.0 0.00 0.00 0.00 41 1002.9
20260505032006 70 38 16.0 29.0 0.00 0.00 0.00 40 1002.9
20260505031528 71 54 13.0 29.0 0.00 0.00 0.00 38 1003.1
20260505031016 71 24 15.0 23.0 0.00 0.00 0.00 38 1003.1
20260505030511 72 55 13.0 21.0 0.00 0.00 0.00 38 1003.0
20260505030025 72 360 8.0 15.0 0.00 0.00 0.00 39 1002.8
20260505025508 72 36 6.0 11.0 0.00 0.00 0.00 41 1002.7
20260505025009 72 48 5.0 10.0 0.00 0.00 0.00 41 1002.4
20260505024510 72 31 5.0 12.0 0.00 0.00 0.00 41 1002.4
20260505024003 72 31 6.0 12.0 0.00 0.00 0.00 41 1002.4
20260505023507 72 18 4.0 10.0 0.00 0.00 0.00 41 1002.2
20260505023021 72 56 3.0 9.0 0.00 0.00 0.00 41 1002.2
20260505022507 72 98 2.0 13.0 0.00 0.00 0.00 41 1002.2
20260505022007 72 53 6.0 13.0 0.00 0.00 0.00 42 1002.1
20260505021527 72 75 4.0 9.0 0.00 0.00 0.00 42 1002.0
20260505021009 72 63 1.0 6.0 0.00 0.00 0.00 43 1002.1
20260505020507 73 103 0.0 5.0 0.00 0.00 0.00 45 1002.0
20260505020033 73 152 2.0 8.0 0.00 0.00 0.00 41 1002.0
20260505015511 74 86 1.0 8.0 0.00 0.00 0.00 40 1001.9
20260505015009 74 82 2.0 6.0 0.00 0.00 0.00 39 1001.7
20260505014514 74 69 1.0 9.0 0.00 0.00 0.00 40 1001.8
20260505014007 74 111 1.0 12.0 0.00 0.00 0.00 40 1001.8
20260505013507 74 144 5.0 16.0 0.00 0.00 0.00 42 1001.9
20260505013028 74 141 9.0 23.0 0.00 0.00 0.00 40 1001.7
20260505012508 76 159 13.0 22.0 0.00 0.00 0.00 41 1001.8
20260505012007 80 180 8.0 13.0 0.00 0.00 0.00 33 1001.7
20260505011534 80 205 2.0 5.0 0.00 0.00 0.00 27 1001.5
20260505011009 80 63 2.0 5.0 0.00 0.00 0.00 26 1001.3
20260505010511 81 337 3.0 5.0 0.00 0.00 0.00 26 1001.2
20260505010045 81 288 2.0 8.0 0.00 0.00 0.00 25 1001.2
20260505005509 81 305 1.0 18.0 0.00 0.00 0.00 24 1001.2
20260505005007 81 321 5.0 20.0 0.00 0.00 0.00 24 1001.1
20260505004517 81 324 9.0 23.0 0.00 0.00 0.00 25 1001.0
20260505004009 81 336 11.0 23.0 0.00 0.00 0.00 25 1000.9
20260505003507 81 322 9.0 18.0 0.00 0.00 0.00 25 1001.1
20260505003022 81 138 0.0 5.0 0.00 0.00 0.00 24 1001.0
20260505002511 81 100 2.0 6.0 0.00 0.00 0.00 24 1000.9
20260505002012 82 150 2.0 6.0 0.00 0.00 0.00 24 1000.9
20260505001526 82 139 3.0 9.0 0.00 0.00 0.00 24 1000.8
20260505001009 82 134 1.0 9.0 0.00 0.00 0.00 24 1000.8
20260505000509 82 99 2.0 8.0 0.00 0.00 0.00 24 1000.6
20260505000023 82 148 2.0 8.0 0.00 0.00 0.00 25 1000.6
20260504235507 82 109 2.0 9.0 0.00 0.00 0.00 25 1000.8
20260504235007 83 133 5.0 12.0 0.00 0.00 0.00 24 1000.7
20260504234520 83 134 3.0 12.0 0.00 0.00 0.00 25 1000.8
20260504234007 83 134 4.0 11.0 0.00 0.00 0.00 24 1000.8
20260504233503 83 94 6.0 11.0 0.00 0.00 0.00 24 1000.8
20260504233003 83 138 6.0 11.0 0.00 0.00 0.00 24 1000.8
20260504232503 83 141 5.0 10.0 0.00 0.00 0.00 25 1000.8
20260504232008 83 166 5.0 12.0 0.00 0.00 0.00 24 1000.8
20260504231507 83 110 7.0 12.0 0.00 0.00 0.00 24 1000.8
20260504231004 84 127 8.0 11.0 0.00 0.00 0.00 24 1000.8
20260504230508 84 146 4.0 11.0 0.00 0.00 0.00 24 1000.8
20260504230020 84 138 7.0 11.0 0.00 0.00 0.00 24 1000.9
20260504225505 84 106 3.0 11.0 0.00 0.00 0.00 24 1000.8
20260504225006 84 130 3.0 10.0 0.00 0.00 0.00 25 1000.8
20260504224524 85 137 6.0 10.0 0.00 0.00 0.00 24 1000.8
20260504224003 85 136 5.0 11.0 0.00 0.00 0.00 24 1000.9
20260504223503 85 135 7.0 11.0 0.00 0.00 0.00 24 1001.0
20260504223011 85 132 2.0 9.0 0.00 0.00 0.00 21 1000.9
20260504222504 86 153 3.0 10.0 0.00 0.00 0.00 20 1000.8
20260504222003 86 40 4.0 10.0 0.00 0.00 0.00 19 1000.7